#timestamp,LO_Frequency,Hit,StdDev 
1598634015.8,286047000.7,N
1598634035.6,286046999.7,N
1598634055.5,286046999.8,N
1598634075.3,286047000.3,N
1598634095.1,286047001.0,N
1598634115.9,286047000.9,N
1598634135.7,286047000.8,N
1598634155.5,286047000.3,N
1598634175.4,286047000.9,N
1598634195.2,286046999.8,N
1598634215.1,286047000.0,N
1598634216.0,286047000.0,N
1598634235.8,286047002.7,N
1598634255.6,286046999.7,N
1598634275.5,286047002.8,N
1598634295.3,286047002.8,N
1598634315.2,286047002.7,N
1598634335.9,286047000.1,N
1598634355.7,286047000.2,N
1598634375.6,286047000.4,N
1598634395.4,286046999.7,N
1598634415.2,286047002.2,N
1598634435.1,286047002.8,N
1598634436.0,286047002.8,N
1598634455.8,286047002.4,N
1598634475.7,286047000.1,N
1598634495.5,286047000.1,N
1598634515.3,286047002.4,N
1598634535.2,286047002.3,N
1598634555.0,286047002.3,N
1598634555.9,286047002.3,N
1598634575.8,286047002.8,N
1598634595.6,286047002.5,N
1598634615.4,286047004.4,Y
1598634635.3,286047000.7,P
1598634655.1,286047000.8,N
1598634675.8,286047000.1,N
1598634695.7,286047002.2,Y
1598634715.5,286046999.7,P
1598634735.4,286046998.2,P
1598634755.2,286047000.7,N
1598634775.0,286047000.9,N
1598634775.9,286047000.9,N
1598634795.8,286047002.3,N
1598634815.6,286046998.1,N
1598634835.5,286046998.5,N
1598634855.3,286046999.9,N
1598634875.1,286047000.9,N
1598634895.9,286047000.8,N
1598634915.7,286047000.7,N
1598634935.5,286047001.0,N
1598634955.4,286047001.0,N
1598634975.2,286047000.7,N
1598634995.1,286047003.7,Y
1598634996.0,286047003.7,P
1598635015.8,286047002.0,N
1598635035.6,286047002.8,N
1598635055.5,286047002.3,N
1598635075.3,286047001.5,N
1598635095.2,286047001.3,N
1598635115.9,286047001.3,N
1598635135.1,286047002.7,N
1598635136.0,286047002.7,N
1598635155.8,286047002.7,N
1598635175.7,286047000.1,N
1598635195.5,286047000.1,N
1598635215.3,286046999.8,N
1598635235.2,286047002.0,N
1598635255.0,286047001.9,N
1598635255.9,286047001.9,N
1598635275.7,286047000.4,N
1598635295.6,286046999.7,N
1598635315.4,286046999.8,N
1598635335.3,286046999.7,N
1598635355.1,286046999.7,N
1598635356.0,286046999.7,N
1598635375.8,286047001.9,N
1598635395.7,286047003.7,N
1598635415.5,286047001.9,N
1598635435.4,286047001.6,N
1598635455.2,286047002.3,N
1598635475.0,286046999.9,N
1598635475.9,286046999.9,N
1598635495.8,286047000.5,N
1598635515.6,286047002.8,N
1598635535.4,286047001.9,N
1598635555.3,286047001.4,N
1598635575.1,286047003.2,N
1598635595.9,286047001.7,N
1598635615.7,286047001.4,N
1598635635.5,286047001.7,N
1598635655.4,286047004.3,Y
1598635675.2,286047000.2,P
1598635695.1,286047002.4,P
1598635696.0,286047002.4,N
1598635715.8,286047000.2,N
1598635735.6,286047000.8,N
1598635755.5,286047000.0,N
1598635775.3,286047000.9,N
1598635795.1,286047000.1,N
1598635815.9,286046999.9,N
1598635835.7,286047000.1,N
1598635855.6,286046999.9,N
1598635875.4,286047000.0,N
1598635895.2,286047000.3,N
1598635915.1,286047002.7,Y
1598635916.0,286047002.7,P
1598635935.8,286047000.6,N
1598635955.7,286047001.1,N
1598635975.5,286047001.1,N
1598635995.3,286046999.9,N
1598636015.2,286047000.8,N
1598636035.0,286047000.8,N
1598636035.9,286047000.8,N
1598636055.8,286047000.8,N
1598636075.6,286046998.4,N
1598636095.4,286047000.2,N
1598636115.3,286047000.2,N
1598636135.1,286047000.5,N
1598636155.9,286046999.8,N
1598636175.7,286046999.8,N
1598636195.5,286047000.5,N
1598636215.4,286047001.1,N
1598636235.2,286046998.1,N
1598636255.0,286047000.7,N
1598636256.0,286047000.7,N
1598636275.8,286046999.9,N
1598636295.6,286047000.3,N
1598636315.5,286047001.2,N
1598636335.3,286047001.0,N
1598636355.1,286047001.0,N
1598636375.9,286047001.1,N
1598636395.7,286046998.2,N
1598636415.5,286046998.8,N
1598636435.4,286046998.7,N
1598636455.2,286046998.5,N
1598636475.1,286046999.0,N
1598636476.0,286046999.0,N
1598636495.8,286046998.6,N
1598636515.6,286047001.0,N
1598636535.5,286047001.1,N
1598636555.3,286047001.0,N
1598636575.2,286046998.7,N
1598636595.9,286047001.2,N
1598636615.7,286046998.8,N
1598636635.6,286047000.6,N
1598636655.4,286047002.8,N
1598636675.2,286047001.3,N
1598636695.1,286047002.6,N
1598636696.0,286047002.6,N
1598636715.8,286047000.9,N
1598636735.7,286047000.3,N
1598636755.5,286046999.0,N
1598636775.3,286046999.2,N
1598636795.2,286046998.5,N
1598636815.0,286047000.9,N
1598636815.9,286047000.9,N
1598636835.7,286047000.8,N
1598636855.6,286047002.0,N
1598636875.4,286047004.9,Y
1598636895.3,286047004.5,P
1598636915.1,286047014.1,P
1598636916.0,286047014.1,N
1598636935.8,286047021.4,Y
1598636955.7,286047012.0,P
1598636975.5,286047009.3,P
1598636995.3,286047010.4,P
1598637015.2,286047004.9,Y
1598637035.0,286046991.8,P
1598637035.9,286046991.8,N
1598637055.8,286046992.8,N
1598637075.6,286046990.4,N
1598637095.4,286046990.9,N
1598637115.3,286046991.3,N
1598637135.1,286046988.7,N
1598637155.9,286046992.7,N
1598637175.7,286046993.1,N
1598637195.5,286046993.9,N
1598637215.4,286046990.2,N
1598637235.2,286046992.0,N
1598637255.0,286046992.6,N
1598637255.9,286046992.6,N
1598637275.8,286046993.2,N
1598637295.6,286046997.9,N
1598637315.5,286046995.6,N
1598637335.3,286046995.0,N
1598637355.1,286046993.7,N
1598637375.9,286046992.5,N
1598637395.7,286046988.8,N
1598637415.5,286046991.1,N
1598637435.4,286046994.7,N
1598637455.2,286046990.8,N
1598637475.0,286046989.9,N
1598637476.0,286046989.9,N
1598637495.8,286046987.7,Y
1598637515.6,286046993.5,P
1598637535.5,286046992.3,P
1598637555.3,286046992.7,P
1598637575.1,286046993.8,Y
1598637595.9,286047001.7,P
